[[{"header":{"parameterUnit":"m.s-1","parameterCategory":1,"la1":30.2991,"la2":30.254,"lo1":-89.0895,"lo2":-89.0444,"dy":0.0017,"dx":0.0017,"nx":28,"ny":28,"refTime":"2023-10-15T09:00:00:Z","depth":0,"parameterNumber":2,"parameterNumberName":"U-component_of_WINDS"},"data":[0,0,0,0,0,0,0,0,0,0,0,0,0,0,0,0,0,0,0,0,0,0,0,0,0,0,0,0,0,0,0,0,0,0,0,0,0,0,0,0,0,0,0,0,0,0,0,0,0,0,0,0,0,0,0,0,0,0,2.8402,2.8402,0,2.8384,2.8384,2.8383,2.8333,2.8332,2.8331,2.833,2.8312,2.8313,2.8313,0,0,0,0,0,0,0,0,0,0,0,0,0,2.8396,2.8397,2.8402,2.8402,2.8402,2.8384,2.8384,2.8383,2.8334,2.8332,2.8331,2.833,2.8312,2.8313,2.8313,0,0,0,0,0,0,0,0,0,0,0,0,0,2.8391,2.8397,2.8402,2.8375,2.8372,2.8384,2.8384,2.8383,2.8334,2.8332,2.8331,2.8329,2.8312,2.8313,2.8314,2.8351,0,0,2.8316,2.8316,0,0,0,0,0,0,0,0,2.8391,2.8391,2.8379,2.8377,2.8374,2.8359,2.8375,2.8372,2.8334,2.8348,2.833,2.8328,2.8329,2.8329,2.8329,2.835,2.8349,2.8316,2.8317,2.8317,2.8317,0,0,0,0,0,0,0,2.8391,2.8391,2.8395,2.8379,2.8376,2.8364,2.8361,2.8374,2.8348,2.8347,2.8343,2.8342,2.8328,2.8328,2.8328,2.8349,2.8316,2.8317,2.8317,2.8318,2.84,2.8401,0,0,0,0,0,0,2.8396,2.8392,2.8396,2.8394,2.8379,2.8365,2.8362,2.8366,2.8348,2.8344,2.8343,2.834,2.8328,2.8327,2.8327,2.8369,2.8317,2.8318,2.8318,2.8398,2.84,2.8402,0,0,0,0,0,0,2.8396,2.8396,2.8396,2.8392,2.8391,2.8367,2.8371,2.8366,2.8366,2.8345,2.834,2.8348,2.8326,2.8326,2.8345,2.8367,2.8318,2.8319,2.8396,2.8399,2.8401,2.8453,0,0,0,0,0,0,2.8396,2.8397,2.841,2.8393,2.8392,2.8414,2.8372,2.8367,2.8368,2.8363,2.8349,2.8345,2.8325,2.8344,2.8346,2.8368,2.8319,2.8394,2.8397,2.84,2.8449,2.8457,2.8464,0,0,0,0,0,2.8396,2.8425,2.8411,2.8412,2.8408,2.8415,2.8415,2.8391,2.837,2.8383,2.837,2.8345,2.8365,2.8347,2.8348,2.837,2.8392,2.8396,2.84,2.8446,2.8455,2.8463,0,0,0,0,0,0,2.8446,2.8423,2.8406,2.8431,2.8426,2.8407,2.8423,2.8402,2.8403,2.8398,2.837,2.8367,2.839,2.8382,2.8362,2.8406,2.8375,2.8379,2.8409,2.8418,2.8425,2.8425,2.832,0,0,0,0,0,2.846,2.8467,2.8447,2.8471,2.8469,2.8447,2.845,2.8432,2.8425,2.8423,2.841,2.8405,2.841,2.8414,2.8418,2.8449,2.8444,2.8465,2.8472,2.8478,2.8482,2.8497,2.8506,2.8415,2.8415,2.8415,0,0,2.8488,2.8477,2.8483,2.8481,2.8475,2.8484,2.8445,2.8456,2.8463,2.8424,2.8441,2.8433,2.8425,2.845,2.846,2.8444,2.8506,2.8483,2.8488,2.8488,2.8502,2.8511,2.8518,2.8417,2.8417,2.8416,0,0,2.8545,2.8537,2.8556,2.8551,2.8542,2.8527,2.8532,2.8517,2.8509,2.8526,2.8497,2.8506,2.8515,2.851,2.851,2.8567,2.8544,2.8569,2.8606,2.8622,2.8629,2.8635,2.8654,2.8661,2.8573,2.8573,2.8573,0,2.8581,2.8593,2.8569,2.8582,2.8581,2.8548,2.8567,2.8563,2.8556,2.8557,2.854,2.8551,2.8544,2.8567,2.8581,2.8582,2.8586,2.8569,2.863,2.8636,2.8641,2.8659,2.8666,2.8576,2.8576,2.8575,2.8575,0,2.8638,2.8648,2.8664,2.8658,2.866,2.8676,2.8654,2.866,2.8643,2.863,2.8648,2.8638,2.8639,2.8644,2.8628,2.8666,2.8656,2.8635,2.8603,2.8653,2.8669,2.8676,2.858,2.8579,2.8578,2.8578,0,0,2.8723,2.8704,2.8711,2.8707,2.8696,2.8702,2.8718,2.8719,2.8723,2.8721,2.8732,2.8742,2.8723,2.8722,2.8705,2.8719,2.8764,2.8696,2.8695,2.8708,2.8804,2.8818,2.8827,2.875,2.8751,2.8752,2.8804,0,2.8775,2.8799,2.8778,2.8806,2.8814,2.8783,2.8797,2.8792,2.8781,2.8787,2.8775,2.8782,2.8756,2.8755,2.8768,2.8756,2.8782,2.8752,2.876,2.876,2.876,2.8835,2.885,2.8899,2.881,2.8811,2.8812,0,2.8838,2.8838,2.8866,2.8853,2.8856,2.8868,2.8867,2.8874,2.8868,2.8859,2.8859,2.8839,2.8853,2.8824,2.8844,2.8824,2.8826,2.8821,2.8823,2.882,2.8788,2.8833,2.8915,2.8921,2.8822,2.8821,2.8821,0,2.8895,2.8902,2.892,2.8918,2.8904,2.8914,2.8908,2.8901,2.8903,2.8903,2.8904,2.8907,2.8907,2.891,2.8891,2.8872,2.8913,2.8882,2.8905,2.8906,2.8913,2.8913,2.8994,2.8919,2.8919,2.8919,2.8918,0,2.8953,2.8972,2.8945,2.8956,2.8976,2.8953,2.8974,2.8965,2.8959,2.8968,2.8943,2.8952,2.8928,2.8935,2.8921,2.8939,2.894,2.8933,2.8929,2.8934,2.8935,2.8933,2.8929,2.892,2.892,2.892,2.8919,0,2.9019,2.9002,2.9019,2.9005,2.9002,2.9018,2.9006,2.9015,2.9004,2.9016,2.9017,2.8999,2.9006,2.8989,2.8993,2.8984,2.9009,2.9,2.9011,2.9007,2.9031,2.9028,2.9112,2.9122,2.9043,2.9043,2.9044,0,2.9056,2.9069,2.9057,2.9061,2.9057,2.9065,2.9067,2.9046,2.9049,2.9044,2.9055,2.906,2.9062,2.9075,2.9062,2.9065,2.9055,2.9085,2.9055,2.906,2.9054,2.9052,2.9053,2.909,2.9091,2.9092,2.9092,0,2.9124,2.9115,2.9119,2.912,2.9123,2.9124,2.9122,2.9127,2.9105,2.911,2.9116,2.9119,2.9123,2.9128,2.9129,2.9124,2.9105,2.9102,2.9107,2.9112,2.9116,2.9112,2.9025,2.91,2.9099,2.9098,2.9098,2.9098,2.9175,2.9185,2.9178,2.9183,2.918,2.918,2.9188,2.9178,2.9183,2.9185,2.9173,2.9182,2.9177,2.9176,2.9174,2.9181,2.9168,2.9176,2.9177,2.9179,2.9182,2.9118,2.9182,2.9181,2.9181,2.9181,2.9181,0,2.9239,2.9234,2.9239,2.9238,2.9242,2.9225,2.9222,2.9227,2.9235,2.9232,2.9236,2.9244,2.9249,2.9238,2.9241,2.9249,2.924,2.9251,2.9249,2.9248,2.9195,2.9189,2.9258,2.9258,2.9258,2.9258,2.9258,2.9258,2.9273,2.929,2.9281,2.9296,2.929,2.9299,2.9299,2.9299,2.9296,2.9306,2.931,2.9303,2.9297,2.93,2.9304,2.9301,2.9302,2.9316,2.9309,2.9259,2.9251,2.9244,2.9238,2.9317,2.9317,2.9361,2.9361,2.9362]},{"header":{"parameterUnit":"m.s-1","parameterCategory":1,"la1":30.2991,"la2":30.254,"lo1":-89.0895,"lo2":-89.0444,"dy":0.0017,"dx":0.0017,"nx":28,"ny":28,"refTime":"2023-10-15T09:00:00:Z","depth":0,"parameterNumber":3,"parameterNumberName":"V-component_of_WINDS"},"data":[0,0,0,0,0,0,0,0,0,0,0,0,0,0,0,0,0,0,0,0,0,0,0,0,0,0,0,0,0,0,0,0,0,0,0,0,0,0,0,0,0,0,0,0,0,0,0,0,0,0,0,0,0,0,0,0,0,0,-5.4691,-5.4693,0,-5.4883,-5.4885,-5.4887,-5.4828,-5.4824,-5.482,-5.4816,-5.5009,-5.5017,-5.5026,0,0,0,0,0,0,0,0,0,0,0,0,0,-5.427,-5.4278,-5.4691,-5.4693,-5.4696,-5.4882,-5.4885,-5.4888,-5.4828,-5.4823,-5.4818,-5.4814,-5.5006,-5.5016,-5.5027,0,0,0,0,0,0,0,0,0,0,0,0,0,-5.4456,-5.4281,-5.469,-5.4689,-5.469,-5.4882,-5.4885,-5.4888,-5.4829,-5.4823,-5.4817,-5.4812,-5.5002,-5.5015,-5.5028,-5.5232,0,0,-5.5069,-5.5075,0,0,0,0,0,0,0,0,-5.4446,-5.4472,-5.4686,-5.4689,-5.4691,-5.4825,-5.4807,-5.5003,-5.4831,-5.4776,-5.4816,-5.4809,-5.4952,-5.4969,-5.5018,-5.5241,-5.5249,-5.507,-5.5078,-5.5084,-5.5088,0,0,0,0,0,0,0,-5.4433,-5.4463,-5.4766,-5.469,-5.4693,-5.4677,-5.4697,-5.4844,-5.4896,-5.4781,-5.4777,-5.4801,-5.4952,-5.5006,-5.5022,-5.5252,-5.507,-5.5082,-5.509,-5.5095,-5.5653,-5.566,0,0,0,0,0,0,-5.4419,-5.4453,-5.476,-5.4772,-5.4551,-5.469,-5.4712,-5.4788,-5.4894,-5.4904,-5.4806,-5.4797,-5.4986,-5.5007,-5.5029,-5.5276,-5.5084,-5.5096,-5.5104,-5.5646,-5.5655,-5.5662,0,0,0,0,0,0,-5.441,-5.4447,-5.4753,-5.4612,-5.465,-5.4704,-5.479,-5.4795,-5.4849,-5.4913,-5.4921,-5.4851,-5.4982,-5.501,-5.5183,-5.5282,-5.5102,-5.5115,-5.5638,-5.5649,-5.5658,-5.5771,0,0,0,0,0,0,-5.4398,-5.4444,-5.4523,-5.4614,-5.4657,-5.4904,-5.4796,-5.4803,-5.4872,-5.4863,-5.4958,-5.4968,-5.4979,-5.5163,-5.5196,-5.5297,-5.5125,-5.563,-5.5643,-5.5655,-5.5759,-5.5784,-5.5806,0,0,0,0,0,-5.4384,-5.4546,-5.4527,-5.4565,-5.4757,-5.491,-5.4935,-5.4946,-5.488,-5.496,-5.5001,-5.4965,-5.5266,-5.5181,-5.5218,-5.5324,-5.5623,-5.5639,-5.5654,-5.5748,-5.5779,-5.5805,0,0,0,0,0,0,-5.4463,-5.4558,-5.4538,-5.4735,-5.4815,-5.49,-5.5,-5.4978,-5.5078,-5.5065,-5.5073,-5.5095,-5.5273,-5.5315,-5.522,-5.5528,-5.5435,-5.5458,-5.5494,-5.5524,-5.5547,-5.5533,-5.5136,0,0,0,0,0,-5.4504,-5.4622,-5.4697,-5.4863,-5.4905,-5.4946,-5.5013,-5.5015,-5.5098,-5.5131,-5.5185,-5.5266,-5.5379,-5.5453,-5.5561,-5.5764,-5.5785,-5.5856,-5.5879,-5.5898,-5.5918,-5.6031,-5.6064,-5.5712,-5.5712,-5.5712,0,0,-5.4589,-5.4655,-5.4728,-5.4881,-5.4944,-5.5065,-5.4975,-5.5106,-5.5196,-5.5151,-5.5318,-5.5361,-5.5451,-5.5641,-5.5727,-5.5682,-5.602,-5.5917,-5.5932,-5.5942,-5.605,-5.6083,-5.6113,-5.5723,-5.5721,-5.5719,0,0,-5.4806,-5.4867,-5.5014,-5.5079,-5.5175,-5.5202,-5.5237,-5.5326,-5.5353,-5.5521,-5.549,-5.5596,-5.579,-5.5857,-5.5916,-5.616,-5.613,-5.6194,-5.6317,-5.6426,-5.6454,-5.6479,-5.6567,-5.6599,-5.6214,-5.6214,-5.6215,0,-5.4899,-5.5082,-5.5091,-5.5227,-5.5295,-5.5261,-5.5409,-5.5471,-5.5597,-5.5645,-5.5593,-5.5837,-5.5896,-5.6101,-5.6161,-5.621,-5.625,-5.6184,-5.6449,-5.6474,-5.6497,-5.6582,-5.6615,-5.6222,-5.6221,-5.622,-5.6219,0,-5.5192,-5.5319,-5.5425,-5.5551,-5.5631,-5.5772,-5.5802,-5.5882,-5.5877,-5.5909,-5.6081,-5.615,-5.6272,-5.632,-5.6315,-5.6526,-5.6495,-5.6446,-5.6353,-5.6538,-5.6618,-5.665,-5.6232,-5.623,-5.6227,-5.6226,0,0,-5.5465,-5.5595,-5.5634,-5.5691,-5.5795,-5.5893,-5.6032,-5.6153,-5.6222,-5.631,-5.6427,-5.6593,-5.6549,-5.6617,-5.6619,-5.6715,-5.6906,-5.6655,-5.6657,-5.6701,-5.7144,-5.7181,-5.7219,-5.6887,-5.6893,-5.6898,-5.7137,0,-5.5692,-5.594,-5.5953,-5.6177,-5.6295,-5.6264,-5.6386,-5.6463,-5.6496,-5.6601,-5.6636,-5.6755,-5.6687,-5.6728,-5.6821,-5.6863,-5.6996,-5.6846,-5.6996,-5.7002,-5.6977,-5.726,-5.73,-5.7522,-5.7168,-5.7173,-5.7177,0,-5.5991,-5.6091,-5.6327,-5.6416,-5.6466,-5.6576,-5.6688,-5.6788,-5.6874,-5.6892,-5.6968,-5.6958,-5.71,-5.7001,-5.7198,-5.7096,-5.7158,-5.7188,-5.7197,-5.7213,-5.7102,-5.7285,-5.7593,-5.7627,-5.7226,-5.7222,-5.7218,0,-5.6169,-5.6361,-5.6529,-5.6578,-5.6685,-5.6763,-5.6812,-5.6892,-5.6964,-5.7062,-5.7109,-5.7221,-5.7283,-5.737,-5.739,-5.7316,-5.7587,-5.7489,-5.7606,-5.7606,-5.7666,-5.7662,-5.799,-5.7703,-5.7703,-5.7702,-5.7701,0,-5.6422,-5.6569,-5.661,-5.6713,-5.6876,-5.6889,-5.705,-5.7093,-5.7165,-5.7276,-5.7255,-5.7358,-5.7378,-5.7485,-5.7501,-5.7663,-5.769,-5.7709,-5.7712,-5.7712,-5.771,-5.7754,-5.774,-5.7711,-5.7709,-5.7707,-5.7706,0,-5.6649,-5.6683,-5.6863,-5.6951,-5.6976,-5.7093,-5.7168,-5.7266,-5.7297,-5.7437,-5.7471,-5.7519,-5.7645,-5.7674,-5.7822,-5.7833,-5.8026,-5.8012,-5.7997,-5.7997,-5.8113,-5.8103,-5.8482,-5.8533,-5.8211,-5.8214,-5.8217,0,-5.681,-5.6922,-5.7022,-5.7096,-5.7148,-5.7266,-5.734,-5.7357,-5.7435,-5.7543,-5.7629,-5.7753,-5.7853,-5.8056,-5.8104,-5.8218,-5.8208,-5.8333,-5.8225,-5.8223,-5.8213,-5.8207,-5.8219,-5.8355,-5.8358,-5.8361,-5.8363,0,-5.7092,-5.7103,-5.7212,-5.7327,-5.7416,-5.7507,-5.7594,-5.7655,-5.7683,-5.7772,-5.7902,-5.798,-5.8133,-5.8257,-5.8372,-5.842,-5.8398,-5.8397,-5.843,-5.8433,-5.842,-5.8431,-5.8056,-5.8388,-5.8386,-5.8384,-5.8382,-5.8381,-5.7292,-5.7391,-5.7478,-5.76,-5.7667,-5.7749,-5.7846,-5.789,-5.7999,-5.8127,-5.8129,-5.8271,-5.8355,-5.8508,-5.8563,-5.8674,-5.8635,-5.8683,-5.8696,-5.8708,-5.8719,-5.8401,-5.8694,-5.8694,-5.8693,-5.8693,-5.8692,0,-5.7574,-5.7629,-5.7741,-5.7864,-5.796,-5.7931,-5.8026,-5.8108,-5.8233,-5.8314,-5.8414,-5.8564,-5.8684,-5.8742,-5.8861,-5.8938,-5.8931,-5.8969,-5.8965,-5.8977,-5.8746,-5.8706,-5.8973,-5.8973,-5.8973,-5.8973,-5.8973,-5.8973,-5.7733,-5.79,-5.7922,-5.8122,-5.8175,-5.8315,-5.8372,-5.8447,-5.8513,-5.8681,-5.8782,-5.8819,-5.8891,-5.9015,-5.9124,-5.9138,-5.9184,-5.9228,-5.9237,-5.9021,-5.8992,-5.8965,-5.8928,-5.9237,-5.9237,-5.9458,-5.946,-5.9461]}]]